Regional Weather Roundup
Issued by NWS

Home | Current Version | Previous Version | Text Only | Print | Product List | Glossary Off
Versions: 1 2 3 4 5 6 7 8 9 10 11 12 13 14 15 16 17 18 19 20 21 22 23 24 25 26 27 28 29 30 31 32 33 34 35 36 37 38 39 40 41 42 43 44 45 46 47 48 49 50

000
ASUS44 KMEG 222100
RWRTN
TENNESSEE HOURLY STATE WEATHER ROUNDUP
NATIONAL WEATHER SERVICE MEMPHIS TN
300 PM CST WED FEB 22 2017

TNZ002-004-019-021-049-052-054-088>092-222200-
WEST TENNESSEE

CITY           SKY/WX    TMP DP  RH WIND       PRES   REMARKS
MEMPHIS INTL   MOSUNNY   73  56  54 VRB5      29.81S
NWS MEMPHIS      N/A     76 N/A N/A MISG        N/A
JACKSON        PTSUNNY   71  59  65 VRB5      29.82S
UNION CITY     PTSUNNY   73  54  49 CALM      29.80S
PARIS          PTSUNNY   70  55  60 SW5       29.82S
$$

TNZ008-025-027-028-033-062-065-066-222200-
NORTH MIDDLE TENNESSEE

CITY           SKY/WX    TMP DP  RH WIND       PRES   REMARKS
NASHVILLE      PTSUNNY   69  56  62 S8        29.84S
CLARKSVILLE    CLOUDY    71  55  56 VRB3      29.81S
SMYRNA         CLOUDY    68  59  73 S6        29.85S
CROSSVILLE     CLOUDY    62  54  74 S5        29.89S
$$

TNZ061-075-076-078-094-096-097-222200-
SOUTH MIDDLE TENNESSEE

CITY           SKY/WX    TMP DP  RH WIND       PRES   REMARKS
TULLAHOMA      PTSUNNY   64  55  72 SE7       29.86S
WINCHESTER     CLOUDY    64  57  77 SE7       29.85F
MCMINNVILLE    CLOUDY    68  57  68 S5        29.86S
COLUMBIA       CLOUDY    66  66 100 SE9       29.82F
SHELBYVILLE    CLOUDY    68  59  73 S3        29.86S
$$

TNZ017-018-042-046-047-222200-
NORTHEAST TENNESSEE

CITY           SKY/WX    TMP DP  RH WIND       PRES   REMARKS
TRI CITIES     CLOUDY    58  56  93 CALM      29.91F
$$

TNZ012-013-036-069-073-074-222200-
CENTRAL EAST TENNESSEE

CITY           SKY/WX    TMP DP  RH WIND       PRES   REMARKS
KNOXVILLE      CLOUDY    61  56  83 N9        29.87R
OAK RIDGE      CLOUDY    61  55  81 NE5       29.89F
GATLINBURG     CLOUDY    57  55  94 NE6       29.88S
$$

TNZ083-085-099-222200-
SOUTHEAST TENNESSEE

CITY           SKY/WX    TMP DP  RH WIND       PRES   REMARKS
CHATTANOOGA    CLOUDY    67  57  70 SW3       29.86F
$$

SKY/WX REPORTED AS FAIR MEANS FEW OR NO CLOUDS BELOW
12 THOUSAND FEET.




USA.gov is the U.S. government's official web portal to all federal, state and local government web resources and services.